Date String (YYYY-MM-DD hh:mm:ss) UTC,Instrument flags,Ambient pressure (hPa),Sample flow (lpm),Bypass flow (lpm),Sample temperature (°C),Ambient temperature (°C),ASC tube jacket temperature (°C),LED temperature (°C),Box temperature (°C),Sample RH (%),Span deviation,Mass concentration (μg/m³),Mass concentration (μg/m³),Mass concentration (μg/m³)
DateTimeUTC,F1_M11,P_M11,Q1_M11,Q2_M11,T1_M11,T2_M11,T3_M11,T4_M11,T5_M11,U1_M11,ZSPAN_M11,X0_M11,X2_M11,X1_M11
2023-05-05 11:00:00,,0825.6,5.00,0.00,29.1,27.5,00.0,37.5,30.6,20.9,0000.0,0010.71,0003.91,0002.44
2023-05-05 11:01:00,,0825.6,4.99,0.00,29.1,27.5,00.0,37.5,30.6,21.0,0000.0,0010.45,0003.89,0002.44
2023-05-05 11:02:00,,0825.6,5.00,0.00,29.0,27.5,00.0,37.5,30.6,21.0,0000.0,0010.31,0003.90,0002.45
2023-05-05 11:03:00,,0825.6,5.00,0.00,29.0,27.5,00.0,37.5,30.6,20.8,0000.0,0009.85,0003.92,0002.46
2023-05-05 11:04:00,,0825.6,5.00,0.00,29.0,27.5,00.0,37.5,30.6,20.7,0000.0,0009.47,0003.94,0002.46
2023-05-05 11:05:00,,0825.6,5.00,0.00,29.0,27.5,00.0,37.5,30.6,20.4,0000.0,0009.25,0003.92,0002.48
2023-05-05 11:06:00,,0825.6,5.00,0.00,29.0,27.5,00.0,37.5,30.6,20.6,0000.0,0009.59,0003.89,0002.47
2023-05-05 11:07:00,,0825.6,5.00,0.00,29.0,27.5,00.0,37.5,30.5,20.5,0000.0,0009.88,0003.85,0002.46
2023-05-05 11:08:00,,0825.7,5.00,0.00,29.0,27.5,00.0,37.5,30.6,20.4,0000.0,0010.31,0003.90,0002.47
2023-05-05 11:09:00,,0825.7,4.99,0.00,29.0,27.5,00.0,37.5,30.6,20.2,0000.0,0010.95,0003.95,0002.46
2023-05-05 11:10:00,,0825.7,5.00,0.00,29.0,27.4,00.0,37.5,30.6,20.3,0000.0,0011.02,0003.99,0002.46
2023-05-05 11:11:00,,0825.7,5.00,0.00,29.0,27.4,00.0,37.5,30.5,20.3,0000.0,0011.29,0003.98,0002.44
2023-05-05 11:12:00,,0825.7,4.99,0.00,29.0,27.3,00.0,37.4,30.5,20.5,0000.0,0011.57,0003.99,0002.44
2023-05-05 11:13:00,,0825.7,4.99,0.00,29.0,27.3,00.0,37.4,30.5,20.5,0000.0,0011.30,0003.95,0002.42
2023-05-05 11:14:00,,0825.7,5.01,0.00,29.0,27.4,00.0,37.4,30.5,20.4,0000.0,0011.26,0003.96,0002.41
2023-05-05 11:15:00,,0825.7,5.01,0.00,29.0,27.4,00.0,37.4,30.5,20.5,0000.0,0011.23,0003.95,0002.42
2023-05-05 11:16:00,,0825.7,5.00,0.00,29.0,27.4,00.0,37.4,30.5,20.6,0000.0,0011.29,0003.95,0002.41
2023-05-05 11:17:00,,0825.7,4.99,0.00,29.0,27.4,00.0,37.4,30.5,20.6,0000.0,0010.99,0003.96,0002.44
2023-05-05 11:18:00,,0825.6,4.99,0.00,29.0,27.4,00.0,37.4,30.4,20.6,0000.0,0010.37,0003.95,0002.48
2023-05-05 11:19:00,,0825.7,5.00,0.00,29.0,27.4,00.0,37.4,30.4,20.5,0000.0,0010.10,0003.91,0002.48
2023-05-05 11:20:00,,0825.6,5.01,0.00,29.0,27.5,00.0,37.4,30.5,19.8,0000.0,0009.41,0003.85,0002.48
2023-05-05 11:21:00,,0825.7,5.01,0.00,29.0,27.5,00.0,37.4,30.5,19.4,0000.0,0009.03,0003.79,0002.46
2023-05-05 11:22:00,,0825.8,5.01,0.00,29.0,27.5,00.0,37.4,30.5,19.6,0000.0,0008.55,0003.80,0002.45
2023-05-05 11:23:00,,0825.8,5.00,0.00,29.0,27.5,00.0,37.4,30.5,19.8,0000.0,0008.22,0003.74,0002.43
2023-05-05 11:24:00,,0825.8,5.00,0.00,29.0,27.4,00.0,37.4,30.5,19.8,0000.0,0008.03,0003.71,0002.40
2023-05-05 11:25:00,,0825.8,4.99,0.00,29.0,27.4,00.0,37.4,30.5,19.7,0000.0,0008.01,0003.69,0002.39
2023-05-05 11:26:00,,0825.7,4.99,0.00,29.0,27.3,00.0,37.4,30.5,19.7,0000.0,0008.00,0003.64,0002.38
2023-05-05 11:27:00,,0825.8,5.01,0.00,28.9,27.3,00.0,37.4,30.5,19.8,0000.0,0007.91,0003.62,0002.37
2023-05-05 11:28:00,,0825.8,5.01,0.00,28.9,27.2,00.0,37.4,30.4,19.9,0000.0,0007.97,0003.60,0002.35
2023-05-05 11:29:00,,0825.8,5.01,0.00,28.9,27.2,00.0,37.4,30.4,19.9,0000.0,0008.20,0003.54,0002.32
2023-05-05 11:30:00,,0825.8,5.00,0.00,28.9,27.1,00.0,37.4,30.4,19.9,0000.0,0008.16,0003.51,0002.30
2023-05-05 11:31:00,,0825.7,5.00,0.00,28.9,27.1,00.0,37.3,30.4,20.0,0000.0,0008.14,0003.49,0002.27
2023-05-05 11:32:00,,0825.7,4.99,0.00,28.9,27.1,00.0,37.3,30.4,20.1,0000.0,0008.34,0003.53,0002.27
2023-05-05 11:33:00,,0825.7,5.00,0.00,28.9,27.0,00.0,37.3,30.4,20.1,0000.0,0008.26,0003.54,0002.29
2023-05-05 11:34:00,,0825.7,5.01,0.00,28.8,27.0,00.0,37.3,30.3,20.1,0000.0,0008.11,0003.51,0002.28
2023-05-05 11:35:00,,0825.7,5.00,0.00,28.8,27.0,00.0,37.3,30.3,20.2,0000.0,0008.08,0003.52,0002.30
2023-05-05 11:36:00,,0825.7,4.99,0.00,28.8,27.0,00.0,37.3,30.3,20.3,0000.0,0008.12,0003.56,0002.33
2023-05-05 11:37:00,,0825.7,4.99,0.00,28.8,27.0,00.0,37.3,30.4,20.4,0000.0,0008.04,0003.57,0002.34
2023-05-05 11:38:00,,0825.7,5.00,0.00,28.8,27.0,00.0,37.3,30.4,20.3,0000.0,0008.15,0003.59,0002.35
2023-05-05 11:39:00,,0825.7,5.01,0.00,28.8,27.1,00.0,37.3,30.4,20.3,0000.0,0008.01,0003.59,0002.35
2023-05-05 11:40:00,,0825.7,5.00,0.00,28.8,27.1,00.0,37.3,30.4,20.4,0000.0,0007.73,0003.62,0002.34
2023-05-05 11:41:00,,0825.8,5.00,0.00,28.8,27.1,00.0,37.3,30.4,20.5,0000.0,0007.63,0003.62,0002.33
2023-05-05 11:42:00,,0825.7,5.00,0.00,28.8,27.2,00.0,37.2,30.4,20.5,0000.0,0007.60,0003.61,0002.32
2023-05-05 11:43:00,,0825.8,5.00,0.00,28.8,27.2,00.0,37.2,30.4,20.6,0000.0,0007.56,0003.55,0002.32
2023-05-05 11:44:00,,0825.8,5.00,0.00,28.8,27.2,00.0,37.2,30.3,20.5,0000.0,0007.45,0003.50,0002.31
2023-05-05 11:45:00,,0825.8,5.00,0.00,28.8,27.2,00.0,37.2,30.4,20.5,0000.0,0007.75,0003.52,0002.33
2023-05-05 11:46:00,,0825.8,5.00,0.00,28.8,27.2,00.0,37.2,30.4,20.5,0000.0,0007.92,0003.51,0002.36
2023-05-05 11:47:00,,0825.8,5.01,0.00,28.8,27.3,00.0,37.2,30.3,20.4,0000.0,0007.94,0003.50,0002.35
2023-05-05 11:48:00,,0825.8,5.00,0.00,28.8,27.3,00.0,37.2,30.3,20.3,0000.0,0007.93,0003.48,0002.35
2023-05-05 11:49:00,,0825.8,5.00,0.00,28.8,27.3,00.0,37.2,30.3,20.2,0000.0,0008.02,0003.47,0002.35
2023-05-05 11:50:00,,0825.7,5.00,0.00,28.8,27.3,00.0,37.2,30.3,20.3,0000.0,0008.08,0003.49,0002.36
2023-05-05 11:51:00,,0825.7,4.99,0.00,28.9,27.3,00.0,37.2,30.3,20.2,0000.0,0008.01,0003.47,0002.37
2023-05-05 11:52:00,,0825.8,5.00,0.00,28.9,27.3,00.0,37.2,30.3,20.1,0000.0,0008.14,0003.50,0002.37
2023-05-05 11:53:00,,0825.8,5.01,0.00,28.9,27.3,00.0,37.2,30.3,20.1,0000.0,0008.23,0003.55,0002.39
2023-05-05 11:54:00,,0825.8,5.01,0.00,28.9,27.3,00.0,37.2,30.3,20.0,0000.0,0008.19,0003.56,0002.39
2023-05-05 11:55:00,,0825.8,5.00,0.00,28.9,27.3,00.0,37.3,30.3,20.0,0000.0,0008.59,0003.58,0002.39
2023-05-05 11:56:00,,0825.8,5.00,0.00,28.9,27.4,00.0,37.3,30.3,20.3,0000.0,0008.96,0003.62,0002.42
2023-05-05 11:57:00,,0825.8,5.00,0.00,28.9,27.4,00.0,37.3,30.3,20.4,0000.0,0009.42,0003.65,0002.41
2023-05-05 11:58:00,,0825.8,5.00,0.00,28.9,27.4,00.0,37.3,30.3,20.4,0000.0,0009.69,0003.70,0002.41
2023-05-05 11:59:00,,0825.8,4.99,0.00,28.9,27.4,00.0,37.3,30.3,20.1,0000.0,0009.71,0003.72,0002.42
